time, Switch, Flow(0), Analog(2)
yyyy/mm/dd HH:MM:SS.fff, True=FILTERED|False=TOTAL, L/min, V
2023/06/24 08:00:02.754, True, 4.725, 0.123522
2023/06/24 08:00:03.258, True, 4.306, 0.121080
2023/06/24 08:00:03.763, True, 3.977, 0.120165
2023/06/24 08:00:04.267, True, 2.653, 0.122759
2023/06/24 08:00:04.763, True, 2.022, 0.122911
2023/06/24 08:00:05.267, True, 1.990, 0.123369
2023/06/24 08:00:05.771, True, 1.990, 0.122606
2023/06/24 08:00:06.267, True, 1.685, 0.121462
2023/06/24 08:00:06.771, True, 1.990, 0.124132
2023/06/24 08:00:07.274, True, 1.992, 0.123980
2023/06/24 08:00:07.771, True, 2.020, 0.122530
2023/06/24 08:00:08.275, True, 1.658, 0.121157
2023/06/24 08:00:08.779, True, 1.990, 0.123827
2023/06/24 08:00:09.275, True, 2.022, 0.121996
2023/06/24 08:00:09.779, True, 1.658, 0.122911
2023/06/24 08:00:10.283, True, 1.990, 0.123522
2023/06/24 08:00:10.778, True, 2.022, 0.124514
2023/06/24 08:00:11.283, True, 1.990, 0.121004
2023/06/24 08:00:11.787, True, 1.658, 0.120851
2023/06/24 08:00:12.283, True, 2.021, 0.122530
2023/06/24 08:00:12.787, True, 1.990, 0.121767
2023/06/24 08:00:13.290, True, 1.989, 0.121462
2023/06/24 08:00:13.786, True, 1.685, 0.122301
2023/06/24 08:00:14.291, True, 1.659, 0.123369
2023/06/24 08:00:14.794, True, 1.989, 0.124819
2023/06/24 08:00:15.290, True, 2.025, 0.124361
2023/06/24 08:00:15.795, True, 1.986, 0.124056
2023/06/24 08:00:16.298, True, 1.659, 0.122606
2023/06/24 08:00:16.794, True, 2.020, 0.122377
2023/06/24 08:00:17.299, True, 1.658, 0.121004
2023/06/24 08:00:17.802, True, 1.990, 0.123064
2023/06/24 08:00:18.298, True, 2.022, 0.121691
2023/06/24 08:00:18.803, True, 1.660, 0.123064
2023/06/24 08:00:19.299, True, 2.020, 0.124056
2023/06/24 08:00:19.802, True, 1.990, 0.124056
2023/06/24 08:00:20.307, True, 1.658, 0.122072
2023/06/24 08:00:20.803, True, 2.025, 0.121538
2023/06/24 08:00:21.307, True, 1.655, 0.121843
2023/06/24 08:00:21.811, True, 1.989, 0.121767
2023/06/24 08:00:22.314, True, 1.990, 0.120089
2023/06/24 08:00:22.811, True, 1.685, 0.120470
2023/06/24 08:00:23.315, True, 1.990, 0.121614
2023/06/24 08:00:23.811, True, 2.022, 0.121462
2023/06/24 08:00:24.314, True, 1.990, 0.121004
2023/06/24 08:00:24.819, True, 1.659, 0.120546
2023/06/24 08:00:25.315, True, 2.025, 0.122072
2023/06/24 08:00:25.819, True, 1.986, 0.122301
2023/06/24 08:00:26.323, True, 1.658, 0.121691
2023/06/24 08:00:26.818, True, 2.022, 0.121004
2023/06/24 08:00:27.323, True, 1.990, 0.120699
2023/06/24 08:00:27.827, True, 1.658, 0.121614
2023/06/24 08:00:28.322, True, 2.022, 0.123293
2023/06/24 08:00:28.827, True, 1.658, 0.124666
2023/06/24 08:00:29.330, True, 1.990, 0.122225
2023/06/24 08:00:29.826, True, 2.022, 0.122377
2023/06/24 08:00:30.330, True, 1.989, 0.122759
2023/06/24 08:00:30.835, True, 1.658, 0.122148
2023/06/24 08:00:31.331, True, 2.022, 0.121614
2023/06/24 08:00:31.835, True, 1.990, 0.120470
2023/06/24 08:00:32.339, True, 1.658, 0.124666
2023/06/24 08:00:32.835, True, 2.022, 0.120851
2023/06/24 08:00:33.339, True, 1.989, 0.121691
2023/06/24 08:00:33.843, True, 1.658, 0.121157
2023/06/24 08:00:34.347, True, 1.991, 0.123293
2023/06/24 08:00:34.843, True, 2.021, 0.122911
2023/06/24 08:00:35.347, True, 1.989, 0.123827
2023/06/24 08:00:35.851, True, 1.658, 0.122988
2023/06/24 08:00:36.347, True, 2.022, 0.122835
2023/06/24 08:00:36.851, True, 1.992, 0.123751
2023/06/24 08:00:37.355, True, 1.656, 0.125200
2023/06/24 08:00:37.851, True, 2.022, 0.126116
2023/06/24 08:00:38.355, True, 1.658, 0.123445
2023/06/24 08:00:38.850, True, 2.022, 0.125811
2023/06/24 08:00:39.355, True, 1.989, 0.124743
2023/06/24 08:00:39.859, True, 1.658, 0.128634
2023/06/24 08:00:40.355, True, 2.022, 0.127718
2023/06/24 08:00:40.859, True, 1.992, 0.128328
2023/06/24 08:00:41.363, True, 1.987, 0.127031
2023/06/24 08:00:41.859, True, 1.685, 0.127871
2023/06/24 08:00:42.363, True, 1.990, 0.128710
2023/06/24 08:00:42.867, True, 1.990, 0.130007
2023/06/24 08:00:43.362, True, 2.022, 0.128786
2023/06/24 08:00:43.866, True, 1.990, 0.131228
2023/06/24 08:00:44.371, True, 1.658, 0.131685
2023/06/24 08:00:44.867, True, 2.022, 0.130846
2023/06/24 08:00:45.371, True, 1.990, 0.130846
2023/06/24 08:00:45.867, True, 1.685, 0.131304
2023/06/24 08:00:46.371, True, 1.990, 0.133288
2023/06/24 08:00:46.875, True, 1.990, 0.131838
2023/06/24 08:00:47.371, True, 1.685, 0.132372
2023/06/24 08:00:47.874, True, 1.989, 0.132830
2023/06/24 08:00:48.379, True, 1.990, 0.132753
2023/06/24 08:00:48.875, True, 2.022, 0.133898
2023/06/24 08:00:49.379, True, 1.990, 0.133745
2023/06/24 08:00:49.882, True, 1.658, 0.131838
2023/06/24 08:00:50.379, True, 2.022, 0.132448
2023/06/24 08:00:50.882, True, 1.658, 0.134127
2023/06/24 08:00:51.387, True, 1.658, 0.131762
2023/06/24 08:00:51.883, True, 2.022, 0.132525
2023/06/24 08:00:52.386, True, 1.658, 0.132143
2023/06/24 08:00:52.890, True, 1.990, 0.133822
2023/06/24 08:00:53.387, True, 2.022, 0.132219
2023/06/24 08:00:53.891, True, 1.989, 0.134508
2023/06/24 08:00:54.395, True, 1.658, 0.136110
2023/06/24 08:00:54.891, True, 2.022, 0.134051
2023/06/24 08:00:55.395, True, 1.990, 0.135500
2023/06/24 08:00:55.899, True, 1.658, 0.134432
2023/06/24 08:00:56.394, True, 2.022, 0.135042
2023/06/24 08:00:56.899, True, 1.990, 0.132982
2023/06/24 08:00:57.403, True, 1.993, 0.132601
2023/06/24 08:00:57.899, True, 1.683, 0.134051
2023/06/24 08:00:58.403, True, 1.657, 0.134966
2023/06/24 08:00:58.906, True, 1.990, 0.135424
2023/06/24 08:00:59.402, True, 2.022, 0.131838
2023/06/24 08:00:59.907, True, 1.658, 0.136110
2023/06/24 08:01:00.410, True, 1.990, 0.132906
2023/06/24 08:01:00.915, True, 1.991, 0.133593
2023/06/24 08:01:01.410, True, 1.684, 0.136110
2023/06/24 08:01:01.915, True, 1.990, 0.133898
2023/06/24 08:01:02.411, True, 2.022, 0.134585
2023/06/24 08:01:02.914, True, 1.658, 0.133974
2023/06/24 08:01:03.418, True, 1.990, 0.133593
2023/06/24 08:01:03.914, True, 2.022, 0.135348
2023/06/24 08:01:04.418, True, 1.990, 0.133745
2023/06/24 08:01:04.923, True, 1.658, 0.136721
2023/06/24 08:01:05.426, True, 1.989, 0.133822
2023/06/24 08:01:05.922, True, 2.022, 0.134279
2023/06/24 08:01:06.426, True, 1.660, 0.136416
2023/06/24 08:01:06.923, True, 2.019, 0.134737
2023/06/24 08:01:07.427, True, 1.991, 0.137942
2023/06/24 08:01:07.930, True, 1.657, 0.134508
2023/06/24 08:01:08.426, True, 2.025, 0.133211
2023/06/24 08:01:08.931, True, 1.989, 0.136339
2023/06/24 08:01:09.435, True, 1.987, 0.134966
2023/06/24 08:01:09.930, True, 2.022, 0.134737
2023/06/24 08:01:10.434, True, 1.660, 0.135882
2023/06/24 08:01:10.938, True, 1.988, 0.134279
2023/06/24 08:01:11.435, True, 2.021, 0.134127
2023/06/24 08:01:11.939, True, 1.993, 0.137713
2023/06/24 08:01:12.443, True, 1.988, 0.134203
2023/06/24 08:01:12.947, True, 1.990, 0.135729
2023/06/24 08:01:13.443, True, 1.683, 0.133669
2023/06/24 08:01:13.947, True, 1.991, 0.132982
2023/06/24 08:01:14.450, True, 1.659, 0.134813
2023/06/24 08:01:14.954, True, 1.987, 0.134966
2023/06/24 08:01:15.451, True, 1.685, 0.135576
2023/06/24 08:01:15.955, True, 1.661, 0.134661
2023/06/24 08:01:16.459, True, 1.986, 0.134813
2023/06/24 08:01:16.955, True, 1.688, 0.132677
2023/06/24 08:01:17.459, True, 1.986, 0.133364
2023/06/24 08:01:17.962, True, 1.993, 0.134051
2023/06/24 08:01:18.459, True, 2.018, 0.134279
2023/06/24 08:01:18.963, True, 1.658, 0.134127
2023/06/24 08:01:19.467, True, 1.990, 0.134432
2023/06/24 08:01:19.962, True, 2.022, 0.134585
2023/06/24 08:01:20.467, True, 1.990, 0.136187
2023/06/24 08:01:20.970, True, 1.989, 0.136187
2023/06/24 08:01:21.466, True, 1.685, 0.135805
2023/06/24 08:01:21.971, True, 1.990, 0.136034
2023/06/24 08:01:22.475, True, 1.990, 0.135958
2023/06/24 08:01:22.971, True, 2.022, 0.133440
2023/06/24 08:01:23.475, True, 1.989, 0.134813
2023/06/24 08:01:23.979, True, 1.990, 0.132448
2023/06/24 08:01:24.475, True, 1.688, 0.135195
2023/06/24 08:01:24.978, True, 1.986, 0.134585
2023/06/24 08:01:25.482, True, 1.990, 0.134508
2023/06/24 08:01:25.979, True, 2.023, 0.133516
2023/06/24 08:01:26.483, True, 1.989, 0.136034
2023/06/24 08:01:26.987, True, 1.990, 0.133516
2023/06/24 08:01:27.483, True, 1.685, 0.136263
2023/06/24 08:01:27.987, True, 1.990, 0.134890
2023/06/24 08:01:28.491, True, 1.658, 0.134508
2023/06/24 08:01:28.987, True, 2.022, 0.133593
2023/06/24 08:01:29.490, True, 1.990, 0.135500
2023/06/24 08:01:29.986, True, 1.685, 0.134737
2023/06/24 08:01:30.490, True, 1.989, 0.133364
2023/06/24 08:01:30.995, True, 1.990, 0.135042
2023/06/24 08:01:31.490, True, 2.022, 0.135119
2023/06/24 08:01:31.994, True, 1.990, 0.131914
2023/06/24 08:01:32.498, True, 1.658, 0.133059
2023/06/24 08:01:32.994, True, 2.022, 0.135805
2023/06/24 08:01:33.499, True, 1.658, 0.134279
2023/06/24 08:01:34.003, True, 1.989, 0.133898
2023/06/24 08:01:34.498, True, 2.022, 0.133440
2023/06/24 08:01:35.002, True, 1.990, 0.134585
2023/06/24 08:01:35.506, True, 1.658, 0.132372
2023/06/24 08:01:36.002, True, 1.685, 0.135042
2023/06/24 08:01:36.506, True, 1.990, 0.134356
2023/06/24 08:01:37.010, True, 1.658, 0.133898
2023/06/24 08:01:37.506, True, 2.022, 0.133593
2023/06/24 08:01:38.010, True, 1.993, 0.134279
2023/06/24 08:01:38.514, True, 1.986, 0.134813
2023/06/24 08:01:39.010, True, 2.022, 0.132219
2023/06/24 08:01:39.514, True, 1.990, 0.131838
2023/06/24 08:01:40.018, True, 1.658, 0.133974
2023/06/24 08:01:40.514, True, 1.685, 0.132982
2023/06/24 08:01:41.018, True, 1.989, 0.136416
2023/06/24 08:01:41.522, True, 1.658, 0.133516
2023/06/24 08:01:42.018, True, 1.685, 0.133516
2023/06/24 08:01:42.522, True, 1.990, 0.132982
2023/06/24 08:01:43.026, True, 1.990, 0.133745
2023/06/24 08:01:43.522, True, 1.685, 0.133593
2023/06/24 08:01:44.026, True, 1.990, 0.133822
2023/06/24 08:01:44.530, True, 1.658, 0.130770
2023/06/24 08:01:45.027, True, 2.022, 0.132982
2023/06/24 08:01:45.530, True, 1.989, 0.133440
2023/06/24 08:01:46.034, True, 1.990, 0.133669
2023/06/24 08:01:46.530, True, 2.021, 0.132906
2023/06/24 08:01:47.034, True, 1.658, 0.132830
2023/06/24 08:01:47.538, True, 1.990, 0.134813
2023/06/24 08:01:48.034, True, 1.685, 0.131991
2023/06/24 08:01:48.538, True, 1.990, 0.133059
2023/06/24 08:01:49.042, True, 1.990, 0.133898
2023/06/24 08:01:49.538, True, 1.685, 0.133440
2023/06/24 08:01:50.042, True, 1.990, 0.133135
2023/06/24 08:01:50.546, True, 1.992, 0.132143
2023/06/24 08:01:51.042, True, 1.683, 0.132982
2023/06/24 08:01:51.547, True, 1.990, 0.134051
2023/06/24 08:01:52.050, True, 1.991, 0.133364
2023/06/24 08:01:52.546, True, 2.021, 0.131456
2023/06/24 08:01:53.050, True, 1.990, 0.135042
2023/06/24 08:01:53.554, True, 1.990, 0.131456
2023/06/24 08:01:54.058, True, 1.659, 0.131991
2023/06/24 08:01:54.554, True, 1.684, 0.132982
2023/06/24 08:01:55.058, True, 1.989, 0.132448
2023/06/24 08:01:55.562, True, 1.988, 0.131380
2023/06/24 08:01:56.058, True, 1.685, 0.130846
2023/06/24 08:01:56.562, True, 1.990, 0.130922
2023/06/24 08:01:57.066, True, 1.989, 0.130999
2023/06/24 08:01:57.562, True, 1.687, 0.132067
2023/06/24 08:01:58.066, True, 1.656, 0.132143
2023/06/24 08:01:58.570, True, 1.991, 0.130465
2023/06/24 08:01:59.066, True, 2.023, 0.134890
2023/06/24 08:01:59.570, True, 1.656, 0.131914
2023/06/24 08:02:00.074, True, 1.994, 0.130770
2023/06/24 08:02:00.570, True, 1.681, 0.132830
2023/06/24 08:02:01.074, True, 1.993, 0.131533
2023/06/24 08:02:01.578, True, 1.655, 0.133593
2023/06/24 08:02:02.082, True, 1.990, 0.130617
2023/06/24 08:02:02.578, True, 1.685, 0.133745
2023/06/24 08:02:03.082, True, 1.990, 0.132601
2023/06/24 08:02:03.586, True, 1.660, 0.131914
2023/06/24 08:02:04.082, True, 2.019, 0.130694
2023/06/24 08:02:04.586, True, 1.990, 0.131991
2023/06/24 08:02:05.090, True, 1.658, 0.133516
2023/06/24 08:02:05.586, True, 2.024, 0.133516
2023/06/24 08:02:06.090, True, 1.656, 0.130922
2023/06/24 08:02:06.594, True, 1.989, 0.130846
2023/06/24 08:02:07.090, True, 2.022, 0.130846
2023/06/24 08:02:07.594, True, 1.660, 0.131762
2023/06/24 08:02:08.098, True, 1.987, 0.133898
2023/06/24 08:02:08.594, True, 2.023, 0.133669
2023/06/24 08:02:09.098, True, 1.657, 0.132219
2023/06/24 08:02:09.602, True, 1.990, 0.131075
2023/06/24 08:02:10.098, True, 1.684, 0.130236
2023/06/24 08:02:10.602, True, 1.990, 0.129397
2023/06/24 08:02:11.107, True, 1.992, 0.131609
2023/06/24 08:02:11.602, True, 1.682, 0.131685
2023/06/24 08:02:12.106, True, 1.990, 0.133822
2023/06/24 08:02:12.610, True, 1.993, 0.130846
2023/06/24 08:02:13.106, True, 2.019, 0.131685
2023/06/24 08:02:13.610, True, 1.658, 0.130159
2023/06/24 08:02:14.114, True, 1.990, 0.131533
2023/06/24 08:02:14.610, True, 1.685, 0.133135
2023/06/24 08:02:15.114, True, 1.990, 0.131380
2023/06/24 08:02:15.618, True, 1.659, 0.130694
2023/06/24 08:02:16.122, True, 1.989, 0.130465
2023/06/24 08:02:16.618, True, 2.022, 0.131838
2023/06/24 08:02:17.122, True, 1.658, 0.131228
2023/06/24 08:02:17.626, True, 1.990, 0.130770
2023/06/24 08:02:18.122, True, 2.022, 0.131456
2023/06/24 08:02:18.626, True, 1.658, 0.130465
2023/06/24 08:02:19.130, True, 1.990, 0.130694
2023/06/24 08:02:19.626, True, 1.685, 0.132296
2023/06/24 08:02:20.130, True, 1.990, 0.131228
2023/06/24 08:02:20.634, True, 1.990, 0.132830
2023/06/24 08:02:21.130, True, 2.022, 0.132143
2023/06/24 08:02:21.634, True, 1.659, 0.131685
2023/06/24 08:02:22.138, True, 1.988, 0.130007
2023/06/24 08:02:22.634, True, 1.685, 0.128099
2023/06/24 08:02:23.138, True, 1.990, 0.132372
2023/06/24 08:02:23.642, True, 1.990, 0.130999
2023/06/24 08:02:24.138, True, 1.685, 0.130922
2023/06/24 08:02:24.642, True, 1.990, 0.131151
2023/06/24 08:02:25.146, True, 1.990, 0.132143
2023/06/24 08:02:25.642, True, 1.685, 0.130236
2023/06/24 08:02:26.146, True, 1.989, 0.131075
2023/06/24 08:02:26.650, True, 1.990, 0.130770
2023/06/24 08:02:27.146, True, 1.685, 0.129625
2023/06/24 08:02:27.650, True, 1.990, 0.130388
2023/06/24 08:02:28.154, True, 1.990, 0.130388
2023/06/24 08:02:28.650, True, 1.686, 0.132219
2023/06/24 08:02:29.154, True, 1.987, 0.132296
2023/06/24 08:02:29.658, True, 1.991, 0.130236
2023/06/24 08:02:30.154, True, 2.023, 0.130541
2023/06/24 08:02:30.658, True, 1.987, 0.131228
2023/06/24 08:02:31.154, True, 1.687, 0.131762
2023/06/24 08:02:31.658, True, 1.989, 0.131991
2023/06/24 08:02:32.162, True, 1.988, 0.130770
2023/06/24 08:02:32.658, True, 2.022, 0.130236
2023/06/24 08:02:33.161, True, 1.990, 0.130770
2023/06/24 08:02:33.666, True, 1.990, 0.131609
2023/06/24 08:02:34.170, True, 1.991, 0.130999
2023/06/24 08:02:34.666, True, 2.022, 0.130083
2023/06/24 08:02:35.170, True, 1.988, 0.130388
2023/06/24 08:02:35.674, True, 1.659, 0.131456
2023/06/24 08:02:36.178, True, 1.988, 0.128405
2023/06/24 08:02:36.674, True, 2.022, 0.127947
2023/06/24 08:02:37.178, True, 1.993, 0.131228
2023/06/24 08:02:37.674, True, 1.685, 0.132296
2023/06/24 08:02:38.178, True, 1.989, 0.129473
2023/06/24 08:02:38.682, True, 1.989, 0.129244
2023/06/24 08:02:39.178, True, 2.021, 0.129320
2023/06/24 08:02:39.682, True, 1.660, 0.130007
2023/06/24 08:02:40.186, True, 1.990, 0.130388
2023/06/24 08:02:40.690, True, 1.987, 0.129931
2023/06/24 08:02:41.186, True, 1.685, 0.129778
2023/06/24 08:02:41.690, True, 1.987, 0.131914
2023/06/24 08:02:42.194, True, 1.990, 0.129320
2023/06/24 08:02:42.690, True, 2.022, 0.131685
2023/06/24 08:02:43.194, True, 1.993, 0.129702
2023/06/24 08:02:43.698, True, 1.656, 0.131304
2023/06/24 08:02:44.194, True, 2.021, 0.130846
2023/06/24 08:02:44.698, True, 1.993, 0.127565
2023/06/24 08:02:45.202, True, 1.987, 0.130694
2023/06/24 08:02:45.706, True, 1.658, 0.128710
2023/06/24 08:02:46.202, True, 2.022, 0.127871
2023/06/24 08:02:46.706, True, 1.993, 0.128176
2023/06/24 08:02:47.210, True, 1.986, 0.128786
2023/06/24 08:02:47.706, True, 2.022, 0.131380
2023/06/24 08:02:48.210, True, 1.990, 0.129778
2023/06/24 08:02:48.714, True, 1.658, 0.131533
2023/06/24 08:02:49.210, True, 2.022, 0.130694
2023/06/24 08:02:49.714, True, 1.990, 0.129320
2023/06/24 08:02:50.218, True, 1.990, 0.128557
2023/06/24 08:02:50.714, True, 1.685, 0.130999
2023/06/24 08:02:51.218, True, 1.990, 0.128481
2023/06/24 08:02:51.722, True, 1.990, 0.127794
2023/06/24 08:02:52.218, True, 1.685, 0.129320
2023/06/24 08:02:52.722, True, 1.990, 0.130388
2023/06/24 08:02:53.226, True, 1.990, 0.128481
2023/06/24 08:02:53.722, True, 1.685, 0.128634
2023/06/24 08:02:54.226, True, 1.990, 0.129625
2023/06/24 08:02:54.730, True, 1.658, 0.129931
2023/06/24 08:02:55.226, True, 2.022, 0.127642
2023/06/24 08:02:55.730, True, 1.990, 0.130312
2023/06/24 08:02:56.234, True, 1.661, 0.128405
2023/06/24 08:02:56.730, True, 2.018, 0.128481
2023/06/24 08:02:57.234, True, 1.658, 0.128328
2023/06/24 08:02:57.738, True, 1.990, 0.128710
2023/06/24 08:02:58.234, True, 2.022, 0.130007
2023/06/24 08:02:58.738, True, 1.989, 0.128252
2023/06/24 08:02:59.242, True, 1.989, 0.129244
2023/06/24 08:02:59.738, True, 1.685, 0.130159
2023/06/24 08:03:00.242, True, 1.990, 0.130236
2023/06/24 08:03:00.746, True, 1.990, 0.130007
2023/06/24 08:03:01.242, True, 1.685, 0.128557
2023/06/24 08:03:01.746, True, 1.989, 0.128328
2023/06/24 08:03:02.250, True, 1.990, 0.130541
2023/06/24 08:03:02.754, True, 1.658, 0.129397
2023/06/24 08:03:03.250, True, 2.022, 0.130236
2023/06/24 08:03:03.754, True, 1.990, 0.130541
2023/06/24 08:03:04.250, True, 1.685, 0.128634
2023/06/24 08:03:04.754, True, 1.990, 0.128176
2023/06/24 08:03:05.258, True, 1.990, 0.126650
2023/06/24 08:03:05.754, True, 2.025, 0.129854
2023/06/24 08:03:06.258, True, 1.655, 0.128405
2023/06/24 08:03:06.762, True, 1.990, 0.129244
2023/06/24 08:03:07.258, True, 2.022, 0.128634
2023/06/24 08:03:07.762, True, 1.658, 0.129397
2023/06/24 08:03:08.266, True, 1.990, 0.127642
2023/06/24 08:03:08.762, True, 1.685, 0.127108
2023/06/24 08:03:09.266, True, 1.658, 0.129168
2023/06/24 08:03:09.770, True, 1.990, 0.127565
2023/06/24 08:03:10.266, True, 2.022, 0.128710
2023/06/24 08:03:10.770, True, 1.990, 0.127260
2023/06/24 08:03:11.266, True, 1.684, 0.129473
2023/06/24 08:03:11.770, True, 1.990, 0.128252
2023/06/24 08:03:12.274, True, 1.658, 0.127947
2023/06/24 08:03:12.770, True, 2.022, 0.128328
2023/06/24 08:03:13.274, True, 1.992, 0.128023
2023/06/24 08:03:13.778, True, 1.656, 0.129244
2023/06/24 08:03:14.274, True, 2.022, 0.128634
2023/06/24 08:03:14.778, True, 1.990, 0.129168
2023/06/24 08:03:15.282, True, 1.990, 0.126040
2023/06/24 08:03:15.778, True, 1.685, 0.128710
2023/06/24 08:03:16.282, True, 1.989, 0.127337
2023/06/24 08:03:16.786, True, 1.990, 0.126955
2023/06/24 08:03:17.282, True, 1.685, 0.128099
2023/06/24 08:03:17.786, True, 1.990, 0.125505
2023/06/24 08:03:18.290, True, 1.989, 0.126726
2023/06/24 08:03:18.786, True, 2.022, 0.127794
2023/06/24 08:03:19.290, True, 1.990, 0.127031
2023/06/24 08:03:19.794, True, 1.658, 0.127337
2023/06/24 08:03:20.290, True, 2.022, 0.127489
2023/06/24 08:03:20.794, True, 1.990, 0.128939
2023/06/24 08:03:21.298, True, 1.658, 0.128481
2023/06/24 08:03:21.794, True, 2.022, 0.129549
2023/06/24 08:03:22.298, True, 1.990, 0.126497
2023/06/24 08:03:22.802, True, 1.990, 0.128023
2023/06/24 08:03:23.298, True, 1.685, 0.128405
2023/06/24 08:03:23.802, True, 1.990, 0.126345
2023/06/24 08:03:24.306, True, 1.990, 0.126497
2023/06/24 08:03:24.802, True, 2.022, 0.128099
2023/06/24 08:03:25.306, True, 1.990, 0.128328
2023/06/24 08:03:25.810, True, 1.658, 0.129244
2023/06/24 08:03:26.306, True, 2.022, 0.127031
2023/06/24 08:03:26.810, True, 1.990, 0.126268
2023/06/24 08:03:27.314, True, 1.658, 0.129091
2023/06/24 08:03:27.810, True, 2.022, 0.128862
2023/06/24 08:03:28.314, True, 1.990, 0.127413
2023/06/24 08:03:28.818, True, 1.990, 0.128557
2023/06/24 08:03:29.314, True, 1.685, 0.126955
2023/06/24 08:03:29.818, True, 1.990, 0.130007
2023/06/24 08:03:30.314, True, 2.022, 0.128023
2023/06/24 08:03:30.818, True, 1.658, 0.127184
2023/06/24 08:03:31.322, True, 1.990, 0.127413
2023/06/24 08:03:31.818, True, 2.022, 0.127184
2023/06/24 08:03:32.322, True, 1.658, 0.128099
2023/06/24 08:03:32.826, True, 1.990, 0.126421
2023/06/24 08:03:33.322, True, 1.687, 0.127108
2023/06/24 08:03:33.826, True, 1.986, 0.127108
2023/06/24 08:03:34.330, True, 1.990, 0.128176
2023/06/24 08:03:34.826, True, 2.022, 0.127108
2023/06/24 08:03:35.330, True, 1.658, 0.129702
2023/06/24 08:03:35.834, True, 1.990, 0.126955
2023/06/24 08:03:36.330, True, 2.022, 0.127947
2023/06/24 08:03:36.834, True, 1.990, 0.127337
2023/06/24 08:03:37.338, True, 1.990, 0.128099
2023/06/24 08:03:37.834, True, 1.685, 0.129397
2023/06/24 08:03:38.338, True, 1.990, 0.126574
2023/06/24 08:03:38.842, True, 1.989, 0.125811
2023/06/24 08:03:39.338, True, 2.022, 0.127565
2023/06/24 08:03:39.842, True, 1.991, 0.127413
2023/06/24 08:03:40.346, True, 1.988, 0.126802
2023/06/24 08:03:40.842, True, 1.685, 0.127108
2023/06/24 08:03:41.346, True, 1.990, 0.127642
2023/06/24 08:03:41.850, True, 1.990, 0.128862
2023/06/24 08:03:42.346, True, 1.685, 0.129091
2023/06/24 08:03:42.850, True, 1.990, 0.124819
2023/06/24 08:03:43.354, True, 1.990, 0.129015
2023/06/24 08:03:43.850, True, 1.684, 0.126879
2023/06/24 08:03:44.354, True, 1.990, 0.131456
2023/06/24 08:03:44.858, True, 1.658, 0.126574
2023/06/24 08:03:45.354, True, 2.022, 0.126345
2023/06/24 08:03:45.858, True, 1.658, 0.126268
2023/06/24 08:03:46.362, True, 1.993, 0.127718
2023/06/24 08:03:46.858, True, 2.019, 0.126421
2023/06/24 08:03:47.362, True, 1.658, 0.126879
2023/06/24 08:03:47.866, True, 1.990, 0.126802
2023/06/24 08:03:48.362, True, 2.022, 0.127565
2023/06/24 08:03:48.866, True, 1.658, 0.128557
2023/06/24 08:03:49.370, True, 1.989, 0.127642
2023/06/24 08:03:49.866, True, 2.022, 0.128176
2023/06/24 08:03:50.370, True, 1.990, 0.127718
2023/06/24 08:03:50.866, True, 1.685, 0.127871
2023/06/24 08:03:51.370, True, 1.990, 0.125811
2023/06/24 08:03:51.874, True, 1.658, 0.128023
2023/06/24 08:03:52.370, True, 2.022, 0.127184
2023/06/24 08:03:52.874, True, 1.990, 0.129015
2023/06/24 08:03:53.377, True, 1.661, 0.126650
2023/06/24 08:03:53.874, True, 1.682, 0.130770
2023/06/24 08:03:54.378, True, 1.989, 0.124895
2023/06/24 08:03:54.882, True, 1.658, 0.127108
2023/06/24 08:03:55.378, True, 2.022, 0.127565
2023/06/24 08:03:55.882, True, 1.658, 0.126726
2023/06/24 08:03:56.386, True, 1.989, 0.125658
2023/06/24 08:03:56.882, True, 1.685, 0.127184
2023/06/24 08:03:57.386, True, 1.658, 0.125658
2023/06/24 08:03:57.890, True, 1.993, 0.127337
2023/06/24 08:03:58.386, True, 1.682, 0.127337
2023/06/24 08:03:58.890, True, 1.990, 0.125658
2023/06/24 08:03:59.394, True, 1.990, 0.127031
2023/06/24 08:03:59.890, True, 1.687, 0.125505
2023/06/24 08:04:00.394, True, 1.988, 0.127184
2023/06/24 08:04:00.898, True, 1.658, 0.126574
2023/06/24 08:04:01.394, True, 2.022, 0.127108
2023/06/24 08:04:01.898, True, 1.658, 0.127489
2023/06/24 08:04:02.402, True, 1.990, 0.127947
2023/06/24 08:04:02.898, True, 1.684, 0.124895
2023/06/24 08:04:03.402, True, 1.990, 0.126802
2023/06/24 08:04:03.905, True, 1.658, 0.124514
2023/06/24 08:04:04.401, True, 2.022, 0.126116
2023/06/24 08:04:04.906, True, 1.989, 0.125124
2023/06/24 08:04:05.402, True, 1.685, 0.127794
2023/06/24 08:04:05.906, True, 1.990, 0.127337
2023/06/24 08:04:06.409, True, 1.658, 0.124895
2023/06/24 08:04:06.906, True, 2.022, 0.125887
2023/06/24 08:04:07.410, True, 1.991, 0.127565
2023/06/24 08:04:07.914, True, 1.988, 0.127184
2023/06/24 08:04:08.410, True, 1.685, 0.126192
2023/06/24 08:04:08.914, True, 1.990, 0.125734
2023/06/24 08:04:09.418, True, 1.989, 0.125582
2023/06/24 08:04:09.913, True, 2.022, 0.127642
2023/06/24 08:04:10.418, True, 1.658, 0.125582
2023/06/24 08:04:10.922, True, 1.991, 0.127031
2023/06/24 08:04:11.418, True, 1.684, 0.129015
2023/06/24 08:04:11.922, True, 1.990, 0.127337